SCD 1 1 22490U 93009B 25346.22460315 .00000743 00000+0 15231-3 0 9999 2 22490 24.9700 281.8676 0041783 319.5532 182.0481 14.45998610734027 TECHSAT 1B (GO-32) 1 25397U 98043D 25346.91750823 .00000164 00000+0 91120-4 0 9992 2 25397 98.9920 330.1336 0002046 56.9971 303.1404 14.24377113424810 SCD 2 1 25504U 98060A 25346.74775517 .00000610 00000+0 11955-3 0 9992 2 25504 24.9933 141.8465 0016654 313.7297 68.7779 14.45423471433325 DLR-TUBSAT 1 25757U 99029B 25346.94119259 .00000245 00000+0 71933-4 0 9992 2 25757 98.6563 331.4611 0013909 192.2046 167.8814 14.52357809406212 TERRA 1 25994U 99068A 25347.01860108 .00000785 00000+0 16957-3 0 9996 2 25994 97.9750 38.6929 0003604 93.9258 22.4022 14.60902488382427 MAROC-TUBSAT 1 27004U 01056D 25347.03824568 -.00000006 00000+0 46621-4 0 9991 2 27004 99.7912 155.4884 0019100 259.3476 211.7615 13.70252903200696 AQUA 1 27424U 02022A 25347.03406664 .00001876 00000+0 38559-3 0 9999 2 27424 98.4037 307.9179 0001135 115.4509 318.2019 14.61810917256075 IRS-P6 (RESOURCESAT-1) 1 28051U 03046A 25347.06242343 .00000340 00000+0 12796-3 0 9998 2 28051 98.2179 27.4541 0064178 179.7074 237.6749 14.36075223153817 SHIYAN-1 (SY-1) 1 28220U 04012A 25346.72817489 .00019116 00000+0 69833-3 0 9996 2 28220 97.8936 48.2653 0005657 325.0150 35.0716 15.28143959182566 AURA 1 28376U 04026A 25346.99527598 .00001813 00000+0 37977-3 0 9990 2 28376 98.3182 297.2231 0001269 94.9147 265.2198 14.60948301139021 IRS-P5 (CARTOSAT-1) 1 28649U 05017A 25347.01765108 .00002911 00000+0 30418-3 0 9992 2 28649 97.5497 13.4186 0001207 47.5140 312.6180 14.90406135116086 SINAH 1 1 28893U 05043D 25346.95558972 .00000787 00000+0 15951-3 0 9997 2 28893 98.2603 115.5133 0015353 136.3453 223.8967 14.63963084 73271 EROS B 1 29079U 06014A 25347.00339667 .00213117 00000+0 18544-2 0 9991 2 29079 97.3466 103.5890 0002252 305.1571 54.9480 15.68378681 90847 RESURS-DK 1 1 29228U 06021A 25346.76422980 .00004255 00000+0 25216-3 0 9994 2 29228 69.9331 101.7749 0007220 259.1692 100.8661 15.12161288 74389 ARIRANG-2 (KOMPSAT-2) 1 29268U 06031A 25347.06336492 .00000951 00000+0 18788-3 0 9990 2 29268 97.8265 175.5206 0013498 308.2866 165.6993 14.64495292 34237 LAPAN-TUBSAT 1 29709U 07001A 25346.98236940 .00000954 00000+0 11657-3 0 9996 2 29709 98.1260 337.1437 0013582 73.2854 286.9850 14.85670038 23501 HAIYANG-1B 1 31113U 07010A 25346.94399633 .00000214 00000+0 97006-4 0 9995 2 31113 98.3315 331.2137 0014244 37.3603 322.8569 14.30965156973999 COSMO-SKYMED 1 1 31598U 07023A 25346.98887486 .00005807 00000+0 52596-3 0 9995 2 31598 97.8835 172.3895 0001232 88.6605 271.4757 14.95766931 1942 TERRASAR-X 1 31698U 07026A 25346.58693161 .00002295 00000+0 11245-3 0 9994 2 31698 97.4459 351.9708 0001927 85.8663 274.2792 15.19146945 24896 WORLDVIEW-1 (WV-1) 1 32060U 07041A 25346.91539146 .00011614 00000+0 47224-3 0 9995 2 32060 97.3831 104.3936 0000813 108.0465 252.0862 15.24694402 14508 YAOGAN-3 1 32289U 07055A 25347.01796016 .00004254 00000+0 44832-3 0 9990 2 32289 97.8368 13.6402 0001246 79.8015 280.3343 14.89860327978135 COSMO-SKYMED 2 1 32376U 07059A 25347.03457689 .00000903 00000+0 11989-3 0 9997 2 32376 97.8811 168.3540 0001501 84.1644 275.9740 14.82167021974420 RADARSAT-2 1 32382U 07061A 25346.98528302 .00000291 00000+0 12993-3 0 9997 2 32382 98.5803 351.5717 0001132 86.2615 273.8697 14.29982488939342 CARTOSAT-2A 1 32783U 08021A 25347.00896800 .00001062 00000+0 15061-3 0 9990 2 32783 97.7930 36.8236 0011856 3.9901 356.1403 14.78937255951289 HUANJING 1A (HJ-1A) 1 33320U 08041A 25347.03340545 .00002414 00000+0 29939-3 0 9994 2 33320 97.6543 335.3197 0020083 33.4080 326.8397 14.83396277930807 HUANJING 1B (HJ-1B) 1 33321U 08041B 25346.99213043 .00002207 00000+0 27563-3 0 9992 2 33321 97.6403 338.9763 0038120 74.9069 285.6358 14.82822548930813 GEOEYE 1 1 33331U 08042A 25346.92945116 .00000965 00000+0 18979-3 0 9990 2 33331 98.1253 58.2078 0002735 275.3230 84.7661 14.64813221922885 THEOS 1 33396U 08049A 25347.03391424 -.00000118 00000+0 -35325-4 0 9995 2 33396 98.5864 45.1143 0001183 95.7606 264.3706 14.20095461891547 COSMO-SKYMED 3 1 33412U 08054A 25347.00114453 .00009808 00000+0 68655-3 0 9996 2 33412 97.8474 197.3972 0016100 172.7689 187.3772 15.05365840928911 YAOGAN-4 1 33446U 08061A 25346.80616376 .00002430 00000+0 30748-3 0 9995 2 33446 97.9180 276.9049 0013566 323.0870 36.9408 14.82683230918046 GOSAT (IBUKI) 1 33492U 09002A 25346.86519054 .00001406 00000+0 25627-3 0 9995 2 33492 98.0769 95.4667 0000934 91.8424 268.2888 14.67555570904137 DEIMOS-1 1 35681U 09041A 25346.98559051 .00001177 00000+0 18225-3 0 9995 2 35681 97.7149 147.5772 0002717 78.7966 281.3550 14.74953676879432 DUBAISAT-1 1 35682U 09041B 25346.93004813 .00002240 00000+0 34342-3 0 9992 2 35682 97.9784 117.6068 0009543 313.9999 46.0423 14.74605669877642 OCEANSAT-2 1 35931U 09051A 25346.97650515 -.00000142 00000+0 -71230-4 0 9999 2 35931 98.2223 347.5532 0016209 44.4402 315.8062 13.99624602853287 WORLDVIEW-2 (WV-2) 1 35946U 09055A 25346.94677905 .00000267 00000+0 10332-3 0 9999 2 35946 98.4787 58.0277 0005172 70.0464 290.1280 14.37724154848883 SMOS 1 36036U 09059A 25347.00913116 .00000581 00000+0 19925-3 0 9995 2 36036 98.4380 172.0535 0001108 83.8778 276.2537 14.39741491846661 YAOGAN-7 1 36110U 09069A 25346.62881281 .00001100 00000+0 16026-3 0 9990 2 36110 98.0300 228.3862 0023380 281.6698 78.1889 14.77732535862078 TANDEM-X 1 36605U 10030A 25346.52106233 .00002568 00000+0 12546-3 0 9997 2 36605 97.4455 351.9037 0001761 90.7800 269.3636 15.19147619858306 CARTOSAT-2B 1 36795U 10035A 25347.04860801 .00001826 00000+0 25530-3 0 9991 2 36795 97.7853 36.0686 0013056 75.6783 284.5877 14.78726473832341 YAOGAN-10 1 36834U 10038A 25347.04705296 .00003696 00000+0 44371-3 0 9995 2 36834 97.9150 6.8656 0001533 82.1075 356.5611 14.84612546829583 COSMO-SKYMED 4 1 37216U 10060A 25347.04723729 .00000816 00000+0 10904-3 0 9992 2 37216 97.8809 168.3659 0001347 76.9212 283.2151 14.82169217816998 RESOURCESAT-2 1 37387U 11015A 25346.92641865 .00000243 00000+0 13092-3 0 9993 2 37387 98.7878 50.4774 0006432 42.2892 317.8780 14.21597368759715 HAIYANG-2A 1 37781U 11043A 25346.99511161 -.00000110 00000+0 -64391-4 0 9998 2 37781 99.3384 347.9255 0001649 82.4875 277.6464 13.78834734721029 RASAT 1 37791U 11044D 25347.04929691 .00001242 00000+0 22493-3 0 9999 2 37791 98.0645 76.3019 0021913 64.1488 60.5782 14.67911167765878 SRMSAT 1 37841U 11058D 25347.03845596 .00000506 00000+0 13117-3 0 9995 2 37841 19.9710 106.1426 0011767 316.7615 198.8861 14.11511594731489 PLEIADES 1A 1 38012U 11076F 25347.02133396 .00000789 00000+0 17949-3 0 9993 2 38012 98.1818 59.7851 0001325 74.2426 48.4770 14.58562174744853 ZIYUAN 1-02C (ZY 1-02C) 1 38038U 11079A 25347.04225992 .00000932 00000+0 32214-3 0 9992 2 38038 98.4328 53.0499 0007206 137.5410 340.4418 14.38013046732459 ZIYUAN 3-1 (ZY 3-1) 1 38046U 12001A 25347.03247832 .00100992 00000+0 88215-3 0 9992 2 38046 97.1753 53.4564 0001741 351.2292 8.8939 15.68632332775015 ARIRANG-3 (KOMPSAT-3) 1 38338U 12025B 25347.01691648 .00000942 00000+0 19881-3 0 9995 2 38338 98.3322 301.6084 0005345 337.8639 22.2330 14.61713357724140 EXACTVIEW-1 (ADS-1B) 1 38709U 12039C 25346.88405917 .00000260 00000+0 13106-3 0 9995 2 38709 98.9636 95.2771 0010667 353.8159 6.2886 14.24908204696178 SPOT 6 1 38755U 12047A 25347.01253547 .00000841 00000+0 19053-3 0 9993 2 38755 98.1568 51.7917 0001155 98.3239 261.8091 14.58604172705910 PLEIADES 1B 1 39019U 12068A 25347.03187552 .00000842 00000+0 19087-3 0 9992 2 39019 98.1788 59.6784 0001228 84.0976 276.0363 14.58553817693711 GOKTURK 2 1 39030U 12073A 25346.98799414 .00001311 00000+0 20048-3 0 9991 2 39030 97.6895 188.6294 0001006 103.4417 256.6905 14.75292595697055 LANDSAT 8 1 39084U 13008A 25346.99972956 .00000659 00000+0 15629-3 0 9997 2 39084 98.2073 55.0693 0001092 88.9847 271.1476 14.57114446670782 SARAL 1 39086U 13009A 25347.00692411 .00000203 00000+0 90497-4 0 9990 2 39086 98.5503 170.9339 0002872 108.1652 251.9845 14.32757173668949 GAOFEN-1 1 39150U 13018A 25347.04088581 .00001804 00000+0 26539-3 0 9996 2 39150 97.9322 57.6944 0018256 142.0404 218.2097 14.76536722680774 VNREDSAT 1 1 39160U 13021B 25347.03139127 .00001241 00000+0 24052-3 0 9996 2 39160 97.9371 42.2956 0001304 77.7110 282.4240 14.64923976673038 ARIRANG-5 (KOMPSAT-5) 1 39227U 13042A 25347.00924794 .00003362 00000+0 24443-3 0 9992 2 39227 97.6146 171.3092 0003591 54.8401 305.3161 15.04507367675860 SKYSAT-A 1 39418U 13066C 25346.87314413 .00005619 00000+0 33292-3 0 9994 2 39418 97.4113 37.0775 0020655 235.9337 123.9933 15.11607279660327 DUBAISAT-2 1 39419U 13066D 25346.97995138 .00008248 00000+0 53384-3 0 9990 2 39419 97.4455 337.3799 0010655 320.6595 39.3859 15.08365998658303 GPM-CORE 1 39574U 14009C 25347.01453032 .00011388 00000+0 24920-3 0 9991 2 39574 64.9736 211.7601 0009825 245.2747 114.7372 15.44471184669058 SENTINEL-1A 1 39634U 14016A 25346.99043941 .00000450 00000+0 10506-3 0 9999 2 39634 98.1807 352.2281 0001245 83.4741 276.6600 14.59201274622868 KAZEOSAT 1 1 39731U 14024A 25346.99832735 .00000505 00000+0 16671-3 0 9993 2 39731 98.3428 58.8993 0001118 94.7100 265.4217 14.42063169611723 ALOS-2 1 39766U 14029A 25346.54013808 .00004634 00000+0 62702-3 0 9992 2 39766 97.9217 81.3886 0001400 99.6977 260.4393 14.79474197623982 KAZEOSAT 2 1 40010U 14033A 25347.02932587 .00001328 00000+0 16083-3 0 9997 2 40010 97.5508 191.3291 0007644 205.6220 154.4618 14.85169937621321 HODOYOSHI-4 1 40011U 14033B 25347.01246920 .00002705 00000+0 30274-3 0 9994 2 40011 97.5416 175.8828 0023239 199.6037 160.4289 14.87483366621125 DEIMOS-2 1 40013U 14033D 25346.98221112 .00003471 00000+0 33932-3 0 9992 2 40013 97.6060 222.7744 0000791 104.5248 255.6059 14.92974987609936 HODOYOSHI-3 1 40015U 14033F 25346.95948998 .00002651 00000+0 31567-3 0 9990 2 40015 97.6198 152.7849 0031914 247.2139 112.5704 14.84808116619988 SPOT 7 1 40053U 14034A 25347.01592991 .00001096 00000+0 23415-3 0 9994 2 40053 98.0903 49.0846 0001588 87.7231 272.4152 14.60735052609959 SKYSAT-B 1 40072U 14037D 25346.82132108 .00002763 00000+0 31262-3 0 9997 2 40072 98.3606 290.5316 0006158 149.7913 210.3657 14.87328681618251 WORLDVIEW-3 (WV-3) 1 40115U 14048A 25346.97656549 .00001869 00000+0 22261-3 0 9998 2 40115 97.8614 59.2538 0004806 183.8245 176.2934 14.85513239614272 GAOFEN-2 1 40118U 14049A 25347.01164354 .00001810 00000+0 24262-3 0 9995 2 40118 98.0381 46.1800 0008631 112.0272 248.1857 14.80611896611688 YAOGAN-21 1 40143U 14053A 25347.01063049 .00007638 00000+0 32069-3 0 9995 2 40143 97.1758 30.3112 0009688 40.6407 319.5552 15.23681591626581 YAOGAN-22 1 40275U 14063A 25347.01221627 -.00000043 00000+0 10702-4 0 9995 2 40275 100.7422 130.4356 0005953 247.5820 112.4661 13.15522650535338 ASNARO 1 40298U 14070A 25347.00262134 .00011290 00000+0 53437-3 0 9991 2 40298 97.3652 62.9416 0005715 120.7455 239.4343 15.19500656615735 YAOGAN-24 1 40310U 14072A 25347.01552999 .00002054 00000+0 30418-3 0 9992 2 40310 98.1219 118.1097 0014740 137.0736 223.1626 14.76180125596254 CBERS 4 1 40336U 14079A 25347.00385417 .00000245 00000+0 99848-4 0 9998 2 40336 98.3305 45.0112 0001640 111.8309 248.3052 14.35517749577248 YAOGAN-26 1 40362U 14088A 25346.99437537 .00036165 00000+0 92515-3 0 9998 2 40362 97.0645 347.6590 0006177 30.4364 329.7240 15.39320945608982 SMAP 1 40376U 15003A 25347.02869213 .00000885 00000+0 18041-3 0 9998 2 40376 98.1291 351.7484 0001199 90.1130 270.0210 14.63345594580399 KOMPSAT-3A 1 40536U 15014A 25347.00432185 .00026020 00000+0 57236-3 0 9998 2 40536 97.6787 321.3654 0004955 126.6435 233.5268 15.43956972592992 SENTINEL-2A 1 40697U 15028A 25346.99089800 .00000191 00000+0 89346-4 0 9999 2 40697 98.5686 59.5192 0001095 87.8380 272.2928 14.30812955547107 GAOFEN-8 1 40701U 15030A 25347.02993553 .00008797 00000+0 23303-3 0 9992 2 40701 97.6914 165.1840 0011612 136.7050 223.5109 15.38547412582757 CARBONITE 1 (CBNT-1) 1 40718U 15032D 25346.98620412 .00003354 00000+0 42074-3 0 9997 2 40718 97.6405 168.0192 0014468 180.7979 179.3215 14.82746695561747 YAOGAN-27 1 40878U 15040A 25347.00505874 .00000060 00000+0 27073-3 0 9994 2 40878 100.1016 336.6129 0007632 286.1396 73.8878 13.16061220493178 GAOFEN-9 01 1 40894U 15047A 25347.00113939 .00002081 00000+0 26418-3 0 9993 2 40894 97.6546 25.9453 0028361 33.5082 326.7919 14.82423892552601 YAOGAN-28 1 41026U 15064A 25347.03198675 .00012074 00000+0 49464-3 0 9992 2 41026 97.2802 124.8157 0012399 124.9963 235.2441 15.24360185562299 YAOGAN-29 1 41038U 15069A 25347.02204868 .00000928 00000+0 12118-3 0 9992 2 41038 98.0222 10.1945 0000172 314.4133 45.7066 14.82882755543033 KENT RIDGE 1 1 41167U 15077B 25346.96980073 .00006651 00000+0 25287-3 0 9995 2 41167 14.9786 209.4340 0008518 133.9708 226.1317 15.21639218552676 GAOFEN-4 1 41194U 15083A 25347.01062049 -.00000322 00000+0 00000+0 0 9995 2 41194 0.1712 81.1690 0003439 105.5007 4.7923 1.00269426 36660 JASON-3 1 41240U 16002A 25346.98322345 -.00000030 00000+0 12748-3 0 9994 2 41240 66.0390 157.3122 0007134 270.8442 89.1759 12.87626524463274 SENTINEL-3A 1 41335U 16011A 25347.02161336 .00000270 00000+0 12958-3 0 9994 2 41335 98.6315 52.0294 0000952 91.1064 269.0226 14.26730937511511 ZIYUAN 3-2 (ZY 3-2) 1 41556U 16033A 25346.98365484 .00010329 00000+0 46085-3 0 9991 2 41556 97.4042 61.1468 0012497 248.0735 111.9173 15.21508001529672 CARTOSAT-2C 1 41599U 16040A 25347.06017444 .00006618 00000+0 31631-3 0 9993 2 41599 97.4766 44.3070 0010857 63.9487 296.2864 15.19299031525453 SKYSAT-C1 1 41601U 16040C 25346.85149902 .00013629 00000+0 43499-3 0 9993 2 41601 96.9830 23.8587 0002339 15.0651 345.0662 15.32593045529297 LAPAN-A3 1 41603U 16040E 25347.02148212 .00006213 00000+0 20608-3 0 9996 2 41603 97.1433 344.5675 0009596 332.9582 27.1159 15.31554848526303 BIROS 1 41604U 16040F 25346.66445816 .00220233 19447-4 75384-3 0 9997 2 41604 97.0690 18.0940 0003395 150.0961 210.0507 15.89700477528718 GAOFEN-3 1 41727U 16049A 25347.01246877 .00000239 00000+0 85787-4 0 9999 2 41727 98.4044 352.5944 0001419 60.3083 299.8248 14.42214033491818 SKYSAT-C4 1 41771U 16058B 25346.99224352 .00021089 00000+0 49169-3 0 9997 2 41771 96.9382 12.1675 0001548 133.4440 226.6938 15.42258103516715 SKYSAT-C5 1 41772U 16058C 25346.87895267 .00014112 00000+0 42060-3 0 9996 2 41772 97.0765 30.6231 0001051 206.7689 153.3501 15.34770392515186 SKYSAT-C2 1 41773U 16058D 25347.00667401 .00016623 00000+0 45670-3 0 9999 2 41773 97.0368 11.5220 0004214 33.7062 326.4451 15.37279313516402 SKYSAT-C3 1 41774U 16058E 25347.03628952 .00024801 00000+0 53749-3 0 9994 2 41774 96.9306 20.7681 0001636 108.2836 251.8592 15.44408588517301 ALSAT 1B 1 41785U 16059C 25347.00960916 .00000942 00000+0 15722-3 0 9992 2 41785 97.7819 358.7878 0010746 102.3595 257.8816 14.72076414493185 PATHFINDER 1 1 41787U 16059E 25346.99563761 .00001264 00000+0 23072-3 0 9993 2 41787 97.8139 349.7573 0030028 80.4484 280.0112 14.67321766492401 SCATSAT 1 1 41790U 16059H 25346.99505520 .00002685 00000+0 36191-3 0 9990 2 41790 98.1466 43.6686 0056296 127.1870 233.4499 14.78938687 74066 GOKTURK 1A 1 41875U 16073A 25346.98170270 .00001061 00000+0 21723-3 0 9991 2 41875 98.1422 239.3437 0001207 78.6707 281.4631 14.62781187481608 RESOURCESAT-2A 1 41877U 16074A 25347.04952366 .00000231 00000+0 12575-3 0 9999 2 41877 98.7751 56.9031 0001137 253.8442 106.2610 14.21599202467851 CARTOSAT-2D 1 41948U 17008A 25346.96261633 .00006779 00000+0 32462-3 0 9996 2 41948 97.4392 44.4560 0004702 161.2166 198.9243 15.19261797489309 SENTINEL-2B 1 42063U 17013A 25347.05363993 .00000236 00000+0 10682-3 0 9996 2 42063 98.5711 59.4947 0001159 92.6477 267.4839 14.30816017458026 CARTOSAT-2E 1 42767U 17036C 25347.04479964 .00007700 00000+0 36896-3 0 9995 2 42767 97.4557 44.6271 0002038 235.5881 124.5161 15.19202349469885 FORMOSAT-5 1 42920U 17049A 25346.91093863 .00000402 00000+0 11262-3 0 9997 2 42920 98.2453 61.2266 0009881 294.9268 65.0900 14.51005732439665 SENTINEL-5P 1 42969U 17064A 25346.76682892 .00000152 00000+0 93228-4 0 9991 2 42969 98.7785 285.3507 0000950 88.8819 271.2466 14.19517585423117 SKYSAT-C11 1 42987U 17068A 25346.93818034 .00029543 00000+0 57650-3 0 9996 2 42987 97.4139 124.4340 0000991 103.3817 256.7543 15.47456375454344 SKYSAT-C10 1 42988U 17068B 25346.92557259 .00015781 00000+0 51154-3 0 9997 2 42988 97.4254 117.7766 0005342 102.9889 257.1950 15.32068085453829 SKYSAT-C9 1 42989U 17068C 25346.88754584 .00017693 00000+0 50474-3 0 9991 2 42989 97.4185 117.1422 0010627 86.9347 273.3113 15.36054461454108 SKYSAT-C8 1 42990U 17068D 25346.95839079 .00016158 00000+0 51001-3 0 9996 2 42990 97.4275 116.9591 0001616 346.6328 13.4871 15.32927639453742 SKYSAT-C7 1 42991U 17068E 25346.91941228 .00016121 00000+0 51800-3 0 9990 2 42991 97.4284 117.9612 0007631 56.3427 303.8542 15.32331015453801 SKYSAT-C6 1 42992U 17068F 25346.89828710 .00014701 00000+0 48536-3 0 9992 2 42992 97.4316 118.3784 0005176 81.9204 278.2625 15.31492716453781 CARTOSAT-2F 1 43111U 18004A 25347.01180609 .00007106 00000+0 33998-3 0 9997 2 43111 97.4320 44.6443 0001105 136.3644 223.7678 15.19280127439069 GAOFEN-1 02 1 43259U 18031A 25346.99589145 .00001839 00000+0 27196-3 0 9994 2 43259 98.0804 44.7850 0001788 216.7396 143.3692 14.76417172415222 GAOFEN-1 03 1 43260U 18031B 25347.04197458 .00001527 00000+0 22705-3 0 9990 2 43260 98.0799 44.7083 0001963 320.8421 39.2646 14.76438046415221 GAOFEN-1 04 1 43262U 18031D 25347.01762104 .00001935 00000+0 28554-3 0 9996 2 43262 98.0804 44.8527 0001072 58.2836 301.8478 14.76452636415218 SENTINEL-3B 1 43437U 18039A 25346.78444497 .00000236 00000+0 11569-3 0 9994 2 43437 98.6269 51.9683 0001597 100.8249 259.3112 14.26734123397545 GAOFEN-5 01 1 43461U 18043A 25346.92251539 .00000764 00000+0 16796-3 0 9998 2 43461 98.4326 309.8929 0000944 339.5277 20.5885 14.60410348404507 GAOFEN-6 1 43484U 18048A 25347.05693235 .00001046 00000+0 15687-3 0 9998 2 43484 97.8028 51.3125 0013203 62.9512 297.3044 14.76566449405921 GAOFEN-11 01 1 43585U 18063A 25347.01215749 .00024361 00000+0 44738-3 0 9997 2 43585 97.1559 49.9435 0004266 312.9432 47.1461 15.49230549411460 ICESAT-2 1 43613U 18070A 25346.99838664 .00015943 00000+0 57912-3 0 9994 2 43613 92.0043 240.8069 0002292 139.7557 220.3863 15.28245993404020 HYSIS 1 43719U 18096A 25347.04982478 .00001696 00000+0 23866-3 0 9990 2 43719 98.0095 50.0254 0001320 58.1760 301.9580 14.78645938379916 KAZSTSAT 1 43783U 18099AB 25347.00175532 .00002082 00000+0 17484-3 0 9994 2 43783 97.4559 22.1758 0005909 329.1628 30.9248 14.99354260383402 SAUDISAT 5A 1 43831U 18102A 25346.98766925 .00009809 00000+0 38730-3 0 9992 2 43831 97.3355 47.1738 0011749 75.5021 284.7520 15.25662418387269 SAUDISAT 5B 1 43833U 18102C 25346.97809795 .00009166 00000+0 35825-3 0 9994 2 43833 97.3449 49.9033 0012469 77.8405 282.4230 15.26014556387374 GAOFEN-10R 1 44622U 19066A 25346.99566015 .00002707 00000+0 34127-3 0 9996 2 44622 98.0275 294.5029 0007870 41.2206 318.9600 14.82794171334785 CARTOSAT-3 1 44804U 19081A 25346.95966966 .00007093 00000+0 33979-3 0 9997 2 44804 97.4585 46.5399 0014190 82.6502 277.6345 15.19154654335190 GAOFEN-12 01 1 44819U 19082A 25347.01346904 .00000804 00000+0 11123-3 0 9996 2 44819 97.8126 353.2873 0001343 231.6082 128.5010 14.80657789326547 CSG-1 1 44873U 19092A 25346.99239163 .00000978 00000+0 12938-3 0 9998 2 44873 97.8810 168.3128 0001447 84.9752 275.1626 14.82164953323898 NEMO-HD 1 46277U 20061F 25347.01917756 .00015107 00000+0 37624-3 0 9990 2 46277 97.2215 46.1133 0001852 56.2525 303.8898 15.40335125293285 SENTINEL-6A 1 46984U 20086A 25346.87439428 -.00000030 00000+0 13400-3 0 9996 2 46984 66.0389 162.0284 0007733 269.2327 90.7802 12.80930623236460 GAOFEN-12 02 1 48079U 21026A 25347.01135502 .00000839 00000+0 11599-3 0 9994 2 48079 97.9852 341.0164 0003547 100.7231 259.4381 14.80675726254214 PLEIADES NEO 3 1 48268U 21034A 25346.99860259 .00000922 00000+0 12381-3 0 9996 2 48268 97.8940 59.4355 0001343 93.2352 266.9014 14.81670095250087 PLEIADES NEO 4 1 49070U 21073E 25346.35703205 -.00000022 00000+0 38133-5 0 9995 2 49070 97.8941 58.7994 0001237 92.1719 267.9635 14.81676895233702 LANDSAT 9 1 49260U 21088A 25346.75942624 .00000732 00000+0 17251-3 0 9999 2 49260 98.2095 54.8703 0001174 89.1031 271.0302 14.57098196223853 CSG-2 1 51444U 22008A 25347.02614149 .00001109 00000+0 14577-3 0 9995 2 51444 97.8809 168.3449 0001536 82.0322 278.1066 14.82166213209014 GAOFEN-12 03 1 52912U 22069A 25346.97468990 .00002239 00000+0 30552-3 0 9993 2 52912 97.8477 234.3185 0002159 61.9775 298.1655 14.79611076187072 SWOT 1 54754U 22173A 25346.99282661 .00000079 00000+0 55236-4 0 9993 2 54754 77.6107 286.6479 0000351 110.2012 249.9177 14.00174731153098 GAOFEN-12 04 1 57654U 23123A 25347.01043917 .00002331 00000+0 31719-3 0 9996 2 57654 97.9117 262.7637 0001350 75.0578 285.0783 14.79702248125091 PARS 1 1 59065U 24039Q 25346.99310321 .00015768 00000+0 38340-3 0 9998 2 59065 97.4635 317.9315 0012536 71.7114 288.5495 15.40981461 99927 RESURS-P 4 1 59371U 24061A 25347.03408703 .00005836 00000+0 19084-3 0 9990 2 59371 97.2540 293.3582 0001501 52.9150 307.2229 15.32088986 95251 LEGION 1 1 59625U 24081A 25346.99585823 .00007069 00000+0 36635-3 0 9998 2 59625 97.5212 61.6318 0003916 317.4955 42.5975 15.16485050 89311 LEGION 2 1 59626U 24081B 25346.96290429 .00008271 00000+0 42777-3 0 9991 2 59626 97.5215 61.6865 0005728 292.4102 67.6523 15.16496698 89318 ALOS-4 (DAICHI-4) 1 60182U 24123A 25344.86865200 .00002905 00000+0 39567-3 0 9990 2 60182 97.9225 79.7424 0001419 101.2045 258.9326 14.79478132 78033 LEGION 3 1 60452U 24146A 25346.95378082 .00007569 00000+0 40234-3 0 9998 2 60452 45.0016 308.9853 0014906 199.8560 160.1740 15.15764531 73769 LEGION 4 1 60453U 24146B 25346.88845233 .00007860 00000+0 41717-3 0 9999 2 60453 45.0391 41.0864 0009483 311.9322 48.0748 15.15827457 72601 SENTINEL-2C 1 60989U 24157A 25346.94886838 .00000222 00000+0 10118-3 0 9994 2 60989 98.5683 59.4284 0001198 97.4260 262.7060 14.30817628 66355 IONOSFERA-M 1 1 61735U 24199A 25347.03867429 .00000102 00000+0 65257-4 0 9998 2 61735 98.7403 216.8846 0000945 21.1906 338.9311 14.22714146101234 IONOSFERA-M 2 1 61736U 24199B 25347.00299244 .00000108 00000+0 68074-4 0 9996 2 61736 98.7402 216.7617 0001656 110.1801 249.9556 14.22716286104357 BIOMASS 1 63772U 25090A 25346.95854570 .00002017 00000+0 36404-3 0 9993 2 63772 98.0699 171.9651 0001167 78.7800 281.3536 14.67540613 33374 GOSAT-GW (IBUKI GW) 1 64694U 25141A 25347.05522472 .00001702 00000+0 30837-3 0 9993 2 64694 98.0426 282.5624 0001452 84.5408 275.5963 14.67558546 24543 IONOSFERA-M 3 1 64876U 25155A 25346.99457670 .00000147 00000+0 86564-4 0 9990 2 64876 98.5782 308.8534 0002215 59.5936 300.5461 14.21441113 19955 IONOSFERA-M 4 1 64877U 25155B 25346.95925161 .00000150 00000+0 88270-4 0 9992 2 64877 98.5782 308.7387 0001576 63.2499 296.8840 14.21442257 19943 MICROCARB 1 64899U 25156A 25346.92254614 .00001138 00000+0 18854-3 0 9999 2 64899 98.0026 62.2651 0017161 144.1638 216.0725 14.72057533 20561 CO3D 3 1 64900U 25156B 25346.18509253 .00023910 00000+0 11050-2 0 9994 2 64900 97.4437 62.5626 0005472 185.3200 174.7978 15.20160723 21125 CO3D 4 1 64901U 25156C 25346.64598682 .00001059 00000+0 52042-4 0 9998 2 64901 97.4314 63.0114 0001018 237.4062 122.7075 15.20210943 21193 CO3D 2 1 64902U 25156D 25346.87600341 .00002342 00000+0 10503-3 0 9991 2 64902 97.4215 63.2016 0020386 351.3096 8.7784 15.22031437 21224 CO3D 1 1 64903U 25156E 25345.62524784 .00011603 00000+0 49387-3 0 9992 2 64903 97.3738 62.1786 0068806 215.7870 143.8746 15.20971930 21035 SENTINEL-6B 1 66514U 25264A 25346.25094248 -.00000015 00000+0 19742-3 0 9997 2 66514 66.0385 163.4531 0007848 270.1768 89.8348 12.81479583 3228